When you browse on this site, cookies collect data to enhance your experience and personalize the content and advertising you see.
Visit our Privacy Policy to learn more. By continuing to use the site, you agree to this use of cookies and data.
  • In Österreich
  • Länderverzeichnis
  • Für 7 Tage
  • Wassertemperatur
  • Wetterkarte
  • News
  • Widgets
  • user-avatar
    Anmelden

    Stündliche Wetter Tolcayuca

    Heute, 18 Januar, Samstag

    Zeit Temperatur Niederschläge Wind Luftdruck Luftfeuchtigkeit
    00:00 +15°C° 0.2 mm 2 m/S 577 mmHg 74%
    01:00 +14°C° 0.2 mm 1 m/S 577 mmHg 76%
    02:00 +14°C° 0.2 mm 1 m/S 576 mmHg 77%
    03:00 +14°C° 0.2 mm 1 m/S 576 mmHg 79%
    04:00 +13°C° 0.2 mm 1 m/S 576 mmHg 80%
    05:00 +13°C° 0 mm 1 m/S 576 mmHg 81%
    06:00 +13°C° 0.1 mm 1 m/S 576 mmHg 79%
    07:00 +14°C° 0.1 mm 1 m/S 577 mmHg 76%
    08:00 +14°C° 0.1 mm 1 m/S 577 mmHg 74%
    09:00 +16°C° 0.1 mm 2 m/S 578 mmHg 67%
    10:00 +17°C° 0.1 mm 2 m/S 579 mmHg 59%
    11:00 +19°C° 0.1 mm 2 m/S 579 mmHg 52%
    12:00 +19°C° 0.1 mm 3 m/S 579 mmHg 51%
    13:00 +19°C° 0.1 mm 4 m/S 578 mmHg 50%
    14:00 +19°C° 0.1 mm 5 m/S 577 mmHg 50%
    15:00 +18°C° 0.9 mm 4 m/S 577 mmHg 56%
    16:00 +17°C° 0.9 mm 4 m/S 577 mmHg 62%
    17:00 +15°C° 0.9 mm 4 m/S 576 mmHg 68%
    18:00 +14°C° 0.2 mm 3 m/S 576 mmHg 72%
    19:00 +13°C° 0.2 mm 3 m/S 577 mmHg 75%
    20:00 +14°C° 0.2 mm 2 m/S 577 mmHg 79%
    21:00 +14°C° 0.2 mm 2 m/S 577 mmHg 81%
    22:00 +13°C° 0.2 mm 2 m/S 576 mmHg 82%
    23:00 +13°C° 0.2 mm 2 m/S 576 mmHg 84%

    Morgen, 19 Januar, Sonntag

    Zeit Temperatur Niederschläge Wind Luftdruck Luftfeuchtigkeit
    00:00 +13°C° 0.1 mm 2 m/S 576 mmHg 84%
    01:00 +13°C° 0.1 mm 2 m/S 576 mmHg 84%
    02:00 +13°C° 0.1 mm 2 m/S 576 mmHg 85%
    03:00 +13°C° 0 mm 2 m/S 576 mmHg 85%
    04:00 +12°C° 0 mm 2 m/S 576 mmHg 86%
    05:00 +12°C° 0 mm 2 m/S 576 mmHg 86%
    06:00 +13°C° 0.1 mm 2 m/S 577 mmHg 84%
    07:00 +13°C° 0.1 mm 2 m/S 577 mmHg 82%
    08:00 +13°C° 0.1 mm 2 m/S 578 mmHg 80%
    09:00 +13°C° 0.2 mm 3 m/S 578 mmHg 77%
    10:00 +13°C° 0.2 mm 3 m/S 578 mmHg 75%
    11:00 +14°C° 0.2 mm 4 m/S 578 mmHg 72%
    12:00 +14°C° 0.1 mm 4 m/S 578 mmHg 71%
    13:00 +14°C° 0.1 mm 4 m/S 577 mmHg 70%
    14:00 +14°C° 0.1 mm 5 m/S 577 mmHg 69%
    15:00 +13°C° 0.1 mm 5 m/S 577 mmHg 72%
    16:00 +12°C° 0.1 mm 4 m/S 577 mmHg 74%
    17:00 +12°C° 0.1 mm 4 m/S 577 mmHg 77%
    18:00 +11°C° 1 mm 4 m/S 577 mmHg 80%
    19:00 +11°C° 1 mm 4 m/S 577 mmHg 83%
    20:00 +10°C° 1 mm 3 m/S 577 mmHg 87%
    21:00 +10°C° 1.9 mm 3 m/S 578 mmHg 85%
    22:00 +10°C° 1.9 mm 3 m/S 578 mmHg 84%
    23:00 +10°C° 1.9 mm 2 m/S 578 mmHg 83%

    übermorgen, 20 Januar, Montag

    Zeit Temperatur Niederschläge Wind Luftdruck Luftfeuchtigkeit
    00:00 +10°C° 0.1 mm 2 m/S 578 mmHg 84%
    01:00 +9°C° 0.1 mm 2 m/S 577 mmHg 85%
    02:00 +9°C° 0.1 mm 2 m/S 577 mmHg 86%
    03:00 +10°C° 0.1 mm 1 m/S 577 mmHg 86%
    04:00 +10°C° 0.1 mm 1 m/S 577 mmHg 87%
    05:00 +10°C° 0.1 mm 1 m/S 577 mmHg 87%
    06:00 +10°C° 0.1 mm 1 m/S 578 mmHg 86%
    07:00 +11°C° 0.1 mm 1 m/S 578 mmHg 84%
    08:00 +10°C° 0.1 mm 2 m/S 579 mmHg 82%
    09:00 +10°C° 0.1 mm 2 m/S 579 mmHg 80%
    10:00 +11°C° 0.1 mm 3 m/S 579 mmHg 78%
    11:00 +11°C° 0.1 mm 3 m/S 579 mmHg 76%
    12:00 +12°C° 0 mm 4 m/S 579 mmHg 71%
    13:00 +13°C° 0 mm 4 m/S 579 mmHg 66%
    14:00 +13°C° 0 mm 4 m/S 579 mmHg 62%
    15:00 +13°C° 0 mm 4 m/S 578 mmHg 65%
    16:00 +12°C° 0 mm 4 m/S 578 mmHg 68%
    17:00 +11°C° 0 mm 4 m/S 577 mmHg 72%
    18:00 +10°C° 0 mm 4 m/S 577 mmHg 74%
    19:00 +10°C° 0 mm 3 m/S 577 mmHg 77%
    20:00 +9°C° 0 mm 3 m/S 578 mmHg 80%
    21:00 +9°C° 0 mm 3 m/S 577 mmHg 81%
    22:00 +9°C° 0 mm 2 m/S 577 mmHg 82%
    23:00 +8°C° 0 mm 2 m/S 577 mmHg 83%

    21 Januar, Dienstag

    Zeit Temperatur Niederschläge Wind Luftdruck Luftfeuchtigkeit
    00:00 +8°C° 0 mm 2 m/S 577 mmHg 81%
    01:00 +9°C° 0 mm 2 m/S 577 mmHg 80%
    02:00 +10°C° 0 mm 1 m/S 577 mmHg 78%
    03:00 +9°C° 0 mm 1 m/S 576 mmHg 79%
    04:00 +9°C° 0 mm 1 m/S 576 mmHg 80%
    05:00 +9°C° 0 mm 1 m/S 576 mmHg 81%
    06:00 +9°C° 0 mm 1 m/S 576 mmHg 77%
    07:00 +10°C° 0 mm 1 m/S 577 mmHg 74%
    08:00 +10°C° 0 mm 1 m/S 577 mmHg 70%
    09:00 +12°C° 0 mm 1 m/S 578 mmHg 63%
    10:00 +14°C° 0 mm 1 m/S 578 mmHg 56%
    11:00 +16°C° 0 mm 1 m/S 578 mmHg 49%
    12:00 +18°C° 0 mm 1 m/S 578 mmHg 45%
    13:00 +18°C° 0 mm 2 m/S 578 mmHg 41%
    14:00 +19°C° 0 mm 2 m/S 578 mmHg 36%
    15:00 +18°C° 0 mm 2 m/S 577 mmHg 41%
    16:00 +17°C° 0 mm 2 m/S 577 mmHg 46%
    17:00 +17°C° 0 mm 2 m/S 576 mmHg 50%
    18:00 +16°C° 0 mm 2 m/S 576 mmHg 58%
    19:00 +14°C° 0 mm 1 m/S 576 mmHg 65%
    20:00 +13°C° 0 mm 1 m/S 576 mmHg 73%
    21:00 +13°C° 0 mm 1 m/S 576 mmHg 71%
    22:00 +13°C° 0 mm 1 m/S 576 mmHg 70%
    23:00 +13°C° 0 mm 1 m/S 576 mmHg 69%

    22 Januar, Mittwoch

    Zeit Temperatur Niederschläge Wind Luftdruck Luftfeuchtigkeit
    00:00 +13°C° 0 mm 1 m/S 575 mmHg 70%
    01:00 +12°C° 0 mm 1 m/S 575 mmHg 72%
    02:00 +11°C° 0 mm 1 m/S 574 mmHg 74%
    03:00 +11°C° 0 mm 1 m/S 574 mmHg 74%
    04:00 +11°C° 0 mm 1 m/S 573 mmHg 75%
    05:00 +11°C° 0 mm 1 m/S 573 mmHg 75%
    06:00 +12°C° 0 mm 1 m/S 574 mmHg 70%
    07:00 +13°C° 0 mm 1 m/S 575 mmHg 65%
    08:00 +14°C° 0 mm 2 m/S 575 mmHg 59%
    09:00 +15°C° 0 mm 2 m/S 576 mmHg 53%
    10:00 +17°C° 0 mm 3 m/S 576 mmHg 47%
    11:00 +19°C° 0 mm 3 m/S 576 mmHg 40%
    12:00 +20°C° 0 mm 3 m/S 576 mmHg 37%
    13:00 +21°C° 0 mm 3 m/S 576 mmHg 35%
    14:00 +21°C° 0 mm 3 m/S 575 mmHg 32%
    15:00 +21°C° 0 mm 4 m/S 575 mmHg 35%
    16:00 +20°C° 0 mm 4 m/S 575 mmHg 39%
    17:00 +19°C° 0 mm 4 m/S 574 mmHg 42%
    18:00 +18°C° 0 mm 3 m/S 575 mmHg 46%
    19:00 +17°C° 0 mm 2 m/S 575 mmHg 50%
    20:00 +16°C° 0 mm 2 m/S 575 mmHg 54%
    21:00 +15°C° 0 mm 1 m/S 574 mmHg 56%
    22:00 +14°C° 0 mm 1 m/S 574 mmHg 59%
    23:00 +13°C° 0 mm 1 m/S 574 mmHg 62%

    23 Januar, Donnerstag

    Zeit Temperatur Niederschläge Wind Luftdruck Luftfeuchtigkeit
    00:00 +13°C° 0 mm 1 m/S 573 mmHg 62%
    01:00 +13°C° 0 mm 1 m/S 573 mmHg 62%
    02:00 +12°C° 0 mm 1 m/S 572 mmHg 62%
    03:00 +12°C° 0 mm 1 m/S 572 mmHg 64%
    04:00 +11°C° 0 mm 1 m/S 572 mmHg 65%
    05:00 +11°C° 0 mm 1 m/S 572 mmHg 66%
    06:00 +12°C° 0 mm 1 m/S 573 mmHg 61%
    07:00 +12°C° 0 mm 1 m/S 573 mmHg 56%
    08:00 +13°C° 0 mm 1 m/S 574 mmHg 51%
    09:00 +14°C° 0 mm 2 m/S 575 mmHg 45%
    10:00 +16°C° 0 mm 2 m/S 575 mmHg 38%
    11:00 +17°C° 0 mm 3 m/S 576 mmHg 32%
    12:00 +18°C° 0 mm 4 m/S 575 mmHg 30%
    13:00 +17°C° 0 mm 5 m/S 575 mmHg 29%
    14:00 +18°C° 0 mm 7 m/S 574 mmHg 27%
    15:00 +16°C° 0 mm 6 m/S 574 mmHg 35%
    16:00 +14°C° 0 mm 6 m/S 573 mmHg 43%
    17:00 +13°C° 0 mm 6 m/S 572 mmHg 51%
    18:00 +13°C° 0 mm 4 m/S 572 mmHg 49%
    19:00 +13°C° 0 mm 3 m/S 573 mmHg 47%
    20:00 +14°C° 0 mm 1 m/S 573 mmHg 45%
    21:00 +13°C° 0 mm 1 m/S 573 mmHg 48%
    22:00 +12°C° 0 mm 1 m/S 572 mmHg 51%
    23:00 +12°C° 0 mm 1 m/S 572 mmHg 54%
    Mehr zeigen